Harare Kutsaga, Zimbabwe

7:47 PM CAT on April 19, 2018 (GMT +0200)
Harare Kutsaga

Weather History for FVHA - February, 2013

Change the Weather History Date:

Wednesday, February 13, 2013

  Actual Average Record
Temperature  
Mean Temperature 68 °F -  
Max Temperature 74 °F 78 °F 86 °F (2003)
Min Temperature 63 °F 59 °F 57 °F (1999)
Cooling Degree Days 4    
Growing Degree Days 18 (Base 50)    
Moisture  
Dew Point 64 °F    
Average Humidity 91    
Maximum Humidity 100    
Minimum Humidity 73    
Precipitation  
Precipitation 0.00 in 0.16 in - ()
Sea Level Pressure  
Sea Level Pressure 30.05 in    
Wind  
Wind Speed 4 mph ()    
Max Wind Speed 14 mph    
Max Gust Speed 26 mph    
Visibility 7.5 miles    
Events Rain    
Averages and records for this station are not official NWS values.
T = Trace of Precipitation, MM = Missing Value Source: Averaged Metar Reports

Daily Weather History Graph

Daily Weather History Graph

Search for Another Location

Airport or City:

Astronomy

Feb. 13, 2013 Rise Set
Actual Time 5:48 AM CAT 6:30 PM CAT
Civil Twilight 5:26 AM CAT 6:53 PM CAT
Nautical Twilight 4:59 AM CAT 7:19 PM CAT
Astronomical Twilight 4:32 AM CAT 7:46 PM CAT
Moon 8:30 AM CAT (2/13) 8:38 PM CAT (2/13)
Length of Visible Light 13h 27m
Length of Day
12h 42m
Waxing Crescent, 11% of the Moon is Illuminated
Feb 13
Waxing Crescent
Feb 17
First Quarter
Feb 25
Full
Mar 4
Last Quarter
Mar 11
New

Hourly Weather History & Observations

Time (CAT) Temp. Dew Point Humidity Pressure Visibility Wind Dir Wind Speed Gust Speed Precip Events Conditions
12:00 AM 66.2 °F 62.6 °F 88% 30.09 in 6.2 mi East 5.8 mph - N/A   Unknown
1:00 AM 64.4 °F 62.6 °F 94% 30.06 in - East 3.5 mph - N/A   Clear
2:00 AM 64 °F 63 °F 95%  in 19 mi Calm Calm - -   Scattered Clouds
2:00 AM 64.4 °F 62.6 °F 94% 30.06 in 6.2 mi Calm Calm - N/A   Mostly Cloudy
5:00 AM 64.4 °F 62.6 °F 94% 30.04 in - WSW 3.5 mph - N/A   Clear
6:00 AM 64.4 °F 64.4 °F 100% 30.04 in 6.2 mi WSW 5.8 mph - N/A   Overcast
7:00 AM 66.2 °F 64.4 °F 94% 30.06 in 6.2 mi SSW 4.6 mph - N/A   Overcast
8:00 AM 66 °F 66 °F 100%  in 16 mi WSW 6.9 mph - -   Overcast
8:00 AM 66.2 °F 64.4 °F 94% 30.09 in 6.2 mi WSW 6.9 mph - N/A   Overcast
9:00 AM 68.0 °F 62.6 °F 83% 30.09 in 6.2 mi South 9.2 mph - N/A   Mostly Cloudy
10:00 AM 69.8 °F 62.6 °F 78% 30.12 in 6.2 mi Variable 3.5 mph - N/A   Mostly Cloudy
11:00 AM 73.4 °F 64.4 °F 73% 30.09 in 6.2 mi Variable 3.5 mph - N/A   Mostly Cloudy
12:00 PM 71.6 °F 64.4 °F 78% 30.06 in 6.2 mi SSW 6.9 mph - N/A   Mostly Cloudy
1:00 PM 73.4 °F 64.4 °F 73% 30.04 in 6.2 mi Variable 3.5 mph - N/A   Mostly Cloudy
2:00 PM 66 °F 63 °F 86%  in 3 mi South 13.8 mph - - Rain Light Rain
2:00 PM 66.2 °F 62.6 °F 88% 30.01 in 3.1 mi South 13.8 mph 26.5 mph N/A Rain Rain
3:00 PM 69.8 °F 66.2 °F 88% 29.98 in 6.2 mi Variable 2.3 mph - N/A   Mostly Cloudy
4:00 PM 66.2 °F 64.4 °F 94% 29.98 in 6.2 mi SSE 5.8 mph - N/A   Mostly Cloudy
5:00 PM 66.2 °F 66.2 °F 100% 30.01 in 6.2 mi Variable 2.3 mph - N/A   Mostly Cloudy
6:00 PM 66.2 °F 64.4 °F 94% 30.01 in 6.2 mi South 3.5 mph - N/A Rain Light Rain
7:00 PM 64.4 °F 64.4 °F 100% 30.04 in 6.2 mi Calm Calm - N/A   Mostly Cloudy
8:00 PM 64 °F 64 °F 98%  in 19 mi SSE 3.5 mph - -   Partly Cloudy
8:00 PM 64.4 °F 64.4 °F 100% 30.04 in 6.2 mi SSE 3.5 mph - N/A   Mostly Cloudy
11:00 PM 66.2 °F 64.4 °F 94% 30.06 in 6.2 mi South 2.3 mph - N/A   Mostly Cloudy